Regional Weather Roundup
Issued by NWS

Home | Current Version | Previous Version | Text Only | Print | Product List | Glossary Off
Versions: 1 2 3 4 5 6 7 8 9 10 11 12 13 14 15 16 17 18 19 20 21 22 23 24 25 26 27

000
ASUS45 KTFX 060610
RWRMT
MONTANA REGIONAL WEATHER ROUNDUP
NATIONAL WEATHER SERVICE GREAT FALLS MT
1100 PM MST MON DEC 05 2016

NOTE: "FAIR" INDICATES FEW OR NO CLOUDS BELOW 12000 FEET WITH NO
SIGNIFICANT WEATHER AND/OR OBSTRUCTIONS TO VISIBILITY.

MTZ001>007-043-060700-
WEST OF THE DIVIDE

CITY           SKY/WX    TMP DP  RH WIND       PRES   REMARKS
KALISPELL      CLOUDY    17  15  92 NE3       30.02S
MISSOULA       CLOUDY    21  16  81 CALM      30.02S
BUTTE          CLEAR      4  -1  80 CALM      29.90S HAZE
MULLAN PASS    CLOUDY    11   8  88 SE5       29.81F
ANACONDA         N/A      7   1  78 W6        29.92F WCI  -3
DEER LODGE       N/A     12   9  85 CALM      29.97S
EUREKA           N/A     19  16  86 E3        30.03S
HAMILTON         N/A     19  10  68 S9        29.98S WCI   9
LIBBY            N/A     16  12  86 CALM      30.04S
RONAN            N/A     20  15  81 CALM      30.03S
$$

MTZ008-052>055-060700-
SOUTHWEST MONTANA

CITY           SKY/WX    TMP DP  RH WIND       PRES   REMARKS
BOZEMAN        MOCLDY    17  14  88 SE5       29.98R
DILLON         CLOUDY     8  -4  58 SW12      29.92F WCI  -7
W YELLOWSTONE  CLOUDY    -4  -8  84 CALM      29.89S
ENNIS          CLOUDY    16  -2  45 SE14      29.96F WCI   1
THREE FORKS      N/A      9 -33  13 CALM      29.98R
TWIN BRIDGES     N/A     13  -3  48 SE6       29.94R WCI   4
$$

MTZ009-010-012-014-046-048-049-054-060700-
EAST SLOPES AND CENTRAL MONTANA

CITY           SKY/WX    TMP DP  RH WIND       PRES   REMARKS
CUT BANK       CLOUDY     3  -2  79 N16       30.09R HAZE    WCI -16
GREAT FALLS    PTCLDY    -1  -4  87 SW5       30.09S
MALMSTROM AFB  MOCLDY     4   2  89 SW7       30.12S WCI  -8
HELENA         CLOUDY     9   2  73 W7        30.05S WCI  -2
AUGUSTA        FLURRIES   4   0  83 N3        30.04R
BOWMANS CRNR   MOCLDY    -1  -4  87 N2        30.03R
CHOTEAU          N/A      5   1  85 MISG      30.09S
FAIRFIELD      FLURRIES   1  -4  80 NW1       30.07S
POWER          FLURRIES   1  -3  84 W9        30.07S WCI -15
RAYNESFORD     FLURRIES   5   2  88 NW5       30.07R
ULM            CLOUDY     5   1  83 NW7       30.11R WCI  -7
$$

MTZ011-013-016-021-045-047-050-051-060700-
NORTH CENTRAL MONTANA

CITY           SKY/WX    TMP DP  RH WIND       PRES   REMARKS
HAVRE          MOCLDY     6  -1  73 NW12      30.17R WCI  -9
LEWISTOWN      CLOUDY     6   3  87 W6        30.02R WCI  -4
N BAR RANCH    CLOUDY     5  -2  72 NW12      29.96S WCI -11
CHINOOK          N/A      5  -2  72 W13       30.16S WCI -12
DENTON           N/A      5   1  82 NW3G17    30.04R
GEYSER         MOCLDY     5   1  82 SW15G22   30.03R WCI -13
GRASS RANGE    CLOUDY     8   3  77 W25       29.97F WCI -13
JUDITH GAP     FLURRIES   3   0  85 NW16      29.97R WCI -16
ROY            MOCLDY     6   3  86 MISG      30.01R
STANFORD         N/A      3   0  90 NW20      29.99S WCI -18
WINIFRED       FLURRIES   5   2  87 MISG      30.05R
$$

MTZ017>020-022>027-061-062-060700-
NORTHEAST MONTANA

CITY           SKY/WX    TMP DP  RH WIND       PRES   REMARKS
GLASGOW        CLOUDY     7  -1  70 NW24      30.07R WCI -14
JORDAN           N/A      3  -2  79 NW16      30.07R WCI -16
SIDNEY         LGT SNOW   9   3  78 NW28G38   29.95R WCI -13
WOLF POINT     CLOUDY    10   1  67 NW15G23   30.07R WCI  -7
PLENTYWOOD       N/A      7   3  85 NW32G39   29.91R VSB 1/4 WCI -17
POPLAR           N/A      9   0  66 NW16      30.04R WCI  -9
$$

MTZ028>42-056>058-060700-
SOUTHCENTRAL AND SOUTHEAST MONTANA

CITY           SKY/WX    TMP DP  RH WIND       PRES   REMARKS
BAKER          CLOUDY     6  -1  73 W26G36    29.93S WCI -16
BILLINGS       FLURRIES  16   5  62 N3        30.01S
LIVINGSTON     SNOW      17  13  84 SW8       29.95S VSB 1/2 WCI   7
MILES CITY     CLEAR      6  -2  69 NW14      30.06R WCI -11
BIG TIMBER     CLOUDY    16  14  93 N8G14     29.98R FOG     WCI   5
EKALAKA          N/A      3  -5  69 W8        29.90R WCI -10
FORSYTH          N/A      7   1  78 NW6       30.08R WCI  -3
HARLOWTON        N/A      5   0  79 N14       29.98R WCI -13
LAUREL           N/A     16   5  61 CALM      29.99R
$$

REGIONAL REPORTS...DAKOTAS

CITY           SKY/WX    TMP DP  RH WIND       PRES   REMARKS
WILLISTON      LGT SNOW  10   5  80 NW25G32   29.93R WCI -11
MINOT          SNOW      19  17  92 NW31      29.66R VSB 1/2 WCI   0
DICKINSON      MIX PCPN   5   1  83 NW31G41   29.81R VSB 3/4 WCI -19
BEACH          LGT SNOW   5   1  85 NW26G37   29.95R WCI -18
CROSBY         LGT SNOW   9   7  92 NW35G41   29.89R VSB 3/4 WCI -15
TIOGA          HVY SNOW   9   9 100 NW36G48   29.82R VSB 1/4 WCI -16
WATFORD CITY   LGT SNOW   9   5  85 NW21G31   29.88R WCI -11
BISMARCK       LGT SNOW  14  12  92 NW33G46   29.69S VSB 1   WCI  -8
GRAND FORKS    FOG       30  27  88 N17       29.39F VSB 1/2 WCI  18
FARGO          CLOUDY    28  25  88 SW25G32   29.41R WCI  13
BUFFALO SD       N/A      8   1  73 NW35G48   29.81R WCI -16
RAPID CITY     CLEAR     17   3  54 NW17      29.87F WCI   1
$$

REGIONAL REPORTS...WYOMING/IDAHO/WASHINGTON

CITY           SKY/WX    TMP DP  RH WIND       PRES   REMARKS
GILLETTE       CLEAR      2  -1  88 W10       29.94R WCI -14
SHERIDAN       PTCLDY     2  -2  83 SW5       29.98R
BUFFALO WY     PTCLDY     5  -5  63 SW5       29.91S
CODY           CLEAR      1  -2  87 VRB3      29.92S
YELLOWSTONE LA   N/A     -5  -8  87 NW3       29.83S
IDAHO FALLS    CLEAR     17   4  56 S7        29.99S WCI   8
SALMON         CLOUDY     5   1  85 CALM      30.00S
BOISE          CLEAR     25  14  63 SE9       30.01S WCI  15
SPOKANE        FLURRIES  28  22  78 E10       29.97S WCI  19
$$

REGIONAL REPORTS...ALBERTA

CITY           SKY/WX    TMP DP  RH WIND       PRES   REMARKS
EDMONTON       CLOUDY    -2 -11  65 NW6       30.28R WCI -14
CALGARY        MOCLDY     0  -9  65 N16       30.14S WCI -21
LETHBRIDGE     FLURRIES   1  -4  78 N12       30.19S WCI -15
MEDICINE HAT   MOCLDY     1  -4  78 NW9G20    30.22R WCI -14
WATERTON GATE    N/A      1  -2  85 NE8         N/A  WCI -12
CARDSTON         N/A      1  -4  78 N6          N/A  WCI -10
MILK RIVER       N/A      0  -4  85 NW10        N/A  WCI -17
$$

REGIONAL REPORTS...SASKATCHEWAN

CITY           SKY/WX    TMP DP  RH WIND       PRES   REMARKS
SWIFT CURRENT  PTCLDY    -2  -6  84 NW18G24   30.02R WCI -24
REGINA         LGT SNOW   9   3  78 NW18      29.98S WCI -10
SASKATOON      FLURRIES   7  -2  66 NW17G24   30.08S WCI -12
CYPRESS HILLS    N/A     -8 -13  77 NW13G25     N/A  WCI -28
VAL MARIE        N/A      3  -4  72 NW15        N/A  WCI -15
ROCKGLEN         N/A      1  -2  85 NW21G30     N/A  WCI -20
ASSINIBOIA       N/A     -2  -9  71 NW15        N/A  WCI -22
$$




USA.gov is the U.S. government's official web portal to all federal, state and local government web resources and services.